Location: Poughquag
(41.6090°N, 73.6820°W)
Time: 12:03:56
(UTC-04:00)

Tiros 1 despin weight - Pass Details

Date: 03 June 2020
Orbit: 593 x 642 km, 48.2° (Epoch: 07 July)

Event Time Altitude Azimuth Distance (km) Brightness Sun altitude
Rises 15:16:59 0° 297° (WNW) 2,892 ? 54.4°
Reaches altitude 10° 15:19:18 10° 297° (WNW) 1,976 ? 54.0°
Maximum altitude 15:23:50 81° 212° (SSW) 619 ? 53.2°
Drops below altitude 10° 15:28:18 10° 124° (ESE) 1,938 ? 52.4°
Sets 15:30:34 0° 123° (ESE) 2,832 ? 52.0°
